Tracking 19847 objects as of 17-Sep-2019
HD Live streaming from Space Station
objects crossing your sky now

TITAN 3C TRANSTAGE DEB

Track TITAN 3C TRANSTAGE DEB now!
10-day predictions


NORAD ID: 1833
Int'l Code: 1965-082DY
Perigee: 648.8 km
Apogee: 760.1 km
Inclination: 32.2 °
Period: 98.7 minutes
Semi major axis: 7075 km
RCS: 0.1109 m2 (medium)
Launch date: October 15, 1965
Source: United States (US)
Launch site: AIR FORCE EASTERN TEST RANGE (AFETR)

Note: This is SATELLITE DEBRIS
aabbcc
Your satellite tracking list
Your tracking list is empty




NASA's NSSDC Master Catalog

Two Line Element Set (TLE):
1  1833U 65082DY  19259.66111847 +.00000192 +00000-0 +30841-4 0  9998
2  1833 032.2278 034.2886 0078651 234.0216 125.3116 14.58714099808550
Source of the keplerian elements: AFSPC